• In Romania
  • List of Countries
  • For 7 days
  • Water Temperature
  • Satellite Maps
  • Weather Map
  • Weather Widgets
  • user-avatar
    Login

    Hourly Weather Ropotamo

    Today, 12 December, Tuesday

    Time Temperature Precipitation Wind Pressure Humidity
    00:00 +9°C° 0 mm 7 mps 761 mmHg 84%
    01:00 +9°C° 0 mm 6 mps 761 mmHg 84%
    02:00 +8°C° 0 mm 6 mps 760 mmHg 86%
    03:00 +8°C° 0 mm 6 mps 760 mmHg 85%
    04:00 +8°C° 0 mm 6 mps 760 mmHg 84%
    05:00 +8°C° 0 mm 6 mps 760 mmHg 83%
    06:00 +8°C° 0 mm 6 mps 760 mmHg 82%
    07:00 +8°C° 0 mm 6 mps 761 mmHg 81%
    08:00 +8°C° 0 mm 5 mps 760 mmHg 80%
    09:00 +9°C° 0 mm 6 mps 760 mmHg 74%
    10:00 +10°C° 0 mm 6 mps 760 mmHg 67%
    11:00 +13°C° 0 mm 6 mps 761 mmHg 61%
    12:00 +14°C° 0 mm 6 mps 761 mmHg 59%
    13:00 +14°C° 0 mm 6 mps 761 mmHg 56%
    14:00 +15°C° 0 mm 6 mps 761 mmHg 54%
    15:00 +14°C° 0 mm 5 mps 761 mmHg 58%
    16:00 +13°C° 0 mm 5 mps 761 mmHg 62%
    17:00 +12°C° 0 mm 4 mps 761 mmHg 66%
    18:00 +11°C° 0 mm 4 mps 761 mmHg 69%
    19:00 +11°C° 0 mm 4 mps 761 mmHg 72%
    20:00 +10°C° 0 mm 3 mps 761 mmHg 75%
    21:00 +10°C° 0 mm 3 mps 761 mmHg 78%
    22:00 +10°C° 0 mm 3 mps 761 mmHg 80%
    23:00 +10°C° 0 mm 3 mps 761 mmHg 83%

    Tomorrow, 13 December, Wednesday

    Time Temperature Precipitation Wind Pressure Humidity
    00:00 +9°C° 0 mm 3 mps 761 mmHg 84%
    01:00 +9°C° 0 mm 3 mps 761 mmHg 85%
    02:00 +9°C° 0 mm 3 mps 761 mmHg 87%
    03:00 +9°C° 0 mm 3 mps 761 mmHg 87%
    04:00 +9°C° 0 mm 3 mps 761 mmHg 88%
    05:00 +8°C° 0 mm 3 mps 761 mmHg 89%
    06:00 +8°C° 0 mm 3 mps 761 mmHg 89%
    07:00 +8°C° 0 mm 3 mps 761 mmHg 90%
    08:00 +8°C° 0 mm 3 mps 761 mmHg 91%
    09:00 +10°C° 0 mm 3 mps 761 mmHg 86%
    10:00 +11°C° 0 mm 3 mps 761 mmHg 81%
    11:00 +12°C° 0 mm 3 mps 761 mmHg 76%
    12:00 +13°C° 0 mm 3 mps 760 mmHg 73%
    13:00 +14°C° 0 mm 3 mps 760 mmHg 70%
    14:00 +16°C° 0 mm 3 mps 760 mmHg 67%
    15:00 +14°C° 0 mm 3 mps 759 mmHg 72%
    16:00 +13°C° 0 mm 3 mps 759 mmHg 77%
    17:00 +12°C° 0 mm 3 mps 759 mmHg 82%
    18:00 +12°C° 0 mm 3 mps 759 mmHg 84%
    19:00 +11°C° 0 mm 3 mps 759 mmHg 86%
    20:00 +11°C° 0 mm 3 mps 759 mmHg 87%
    21:00 +11°C° 0 mm 3 mps 758 mmHg 88%
    22:00 +11°C° 0 mm 3 mps 758 mmHg 88%
    23:00 +10°C° 0 mm 3 mps 758 mmHg 89%

    Day after tomorrow, 14 December, Thursday

    Time Temperature Precipitation Wind Pressure Humidity
    00:00 +11°C° 0 mm 4 mps 757 mmHg 89%
    01:00 +11°C° 0 mm 4 mps 757 mmHg 88%
    02:00 +11°C° 0 mm 4 mps 757 mmHg 88%
    03:00 +11°C° 0 mm 4 mps 757 mmHg 88%
    04:00 +11°C° 0 mm 4 mps 756 mmHg 88%
    05:00 +11°C° 0 mm 4 mps 756 mmHg 89%
    06:00 +11°C° 0 mm 4 mps 756 mmHg 89%
    07:00 +11°C° 0 mm 3 mps 756 mmHg 90%
    08:00 +11°C° 0 mm 3 mps 756 mmHg 91%
    09:00 +11°C° 0.2 mm 3 mps 756 mmHg 89%
    10:00 +13°C° 0.2 mm 2 mps 757 mmHg 87%
    11:00 +13°C° 0.2 mm 2 mps 757 mmHg 84%
    12:00 +14°C° 0.1 mm 2 mps 757 mmHg 80%
    13:00 +14°C° 0.1 mm 2 mps 756 mmHg 76%
    14:00 +15°C° 0.1 mm 2 mps 756 mmHg 71%
    15:00 +14°C° 0 mm 2 mps 756 mmHg 74%
    16:00 +13°C° 0 mm 1 mps 757 mmHg 77%
    17:00 +12°C° 0 mm 1 mps 757 mmHg 81%
    18:00 +12°C° 0 mm 1 mps 757 mmHg 82%
    19:00 +11°C° 0 mm 1 mps 757 mmHg 84%
    20:00 +11°C° 0 mm 1 mps 758 mmHg 86%
    21:00 +11°C° 0 mm 1 mps 758 mmHg 87%
    22:00 +10°C° 0 mm 1 mps 758 mmHg 88%
    23:00 +10°C° 0 mm 1 mps 758 mmHg 88%

    15 December, Friday

    Time Temperature Precipitation Wind Pressure Humidity
    00:00 +10°C° 0 mm 1 mps 758 mmHg 89%
    01:00 +10°C° 0 mm 1 mps 758 mmHg 90%
    02:00 +9°C° 0 mm 2 mps 757 mmHg 91%
    03:00 +8°C° 0 mm 2 mps 757 mmHg 91%
    04:00 +8°C° 0 mm 2 mps 757 mmHg 91%
    05:00 +8°C° 0 mm 2 mps 757 mmHg 91%
    06:00 +8°C° 0 mm 3 mps 757 mmHg 91%
    07:00 +8°C° 0 mm 3 mps 757 mmHg 92%
    08:00 +8°C° 0 mm 3 mps 757 mmHg 92%
    09:00 +8°C° 0 mm 4 mps 757 mmHg 86%
    10:00 +11°C° 0 mm 4 mps 757 mmHg 80%
    11:00 +13°C° 0 mm 4 mps 757 mmHg 74%
    12:00 +13°C° 0 mm 5 mps 757 mmHg 70%
    13:00 +14°C° 0 mm 5 mps 756 mmHg 67%
    14:00 +15°C° 0 mm 5 mps 756 mmHg 63%
    15:00 +14°C° 0 mm 5 mps 756 mmHg 68%
    16:00 +13°C° 0 mm 5 mps 755 mmHg 73%
    17:00 +13°C° 0 mm 6 mps 755 mmHg 79%
    18:00 +11°C° 0 mm 6 mps 755 mmHg 79%
    19:00 +11°C° 0 mm 6 mps 755 mmHg 79%
    20:00 +11°C° 0 mm 7 mps 755 mmHg 80%
    21:00 +11°C° 0 mm 7 mps 755 mmHg 81%
    22:00 +11°C° 0 mm 7 mps 755 mmHg 82%
    23:00 +11°C° 0 mm 7 mps 755 mmHg 83%

    16 December, Saturday

    Time Temperature Precipitation Wind Pressure Humidity
    00:00 +11°C° 0 mm 7 mps 755 mmHg 84%
    01:00 +11°C° 0 mm 7 mps 755 mmHg 85%
    02:00 +11°C° 0 mm 8 mps 754 mmHg 86%
    03:00 +11°C° 0 mm 8 mps 754 mmHg 86%
    04:00 +11°C° 0 mm 8 mps 754 mmHg 87%
    05:00 +11°C° 0 mm 8 mps 754 mmHg 87%
    06:00 +11°C° 0 mm 8 mps 754 mmHg 87%
    07:00 +12°C° 0 mm 8 mps 754 mmHg 87%
    08:00 +12°C° 0 mm 8 mps 754 mmHg 86%
    09:00 +12°C° 0 mm 9 mps 754 mmHg 84%
    10:00 +13°C° 0 mm 9 mps 754 mmHg 81%
    11:00 +15°C° 0 mm 9 mps 754 mmHg 78%
    12:00 +15°C° 0 mm 9 mps 754 mmHg 74%
    13:00 +16°C° 0 mm 9 mps 754 mmHg 71%
    14:00 +16°C° 0 mm 9 mps 754 mmHg 67%
    15:00 +16°C° 0 mm 9 mps 754 mmHg 70%
    16:00 +15°C° 0 mm 9 mps 754 mmHg 73%
    17:00 +15°C° 0 mm 8 mps 754 mmHg 76%
    18:00 +15°C° 0.1 mm 8 mps 754 mmHg 78%
    19:00 +13°C° 0.1 mm 8 mps 754 mmHg 80%
    20:00 +13°C° 0.1 mm 8 mps 754 mmHg 81%
    21:00 +13°C° 0 mm 8 mps 754 mmHg 82%
    22:00 +13°C° 0 mm 8 mps 754 mmHg 82%
    23:00 +13°C° 0 mm 8 mps 754 mmHg 83%

    17 December, Sunday

    Time Temperature Precipitation Wind Pressure Humidity
    00:00 +13°C° 0.5 mm 8 mps 754 mmHg 84%
    01:00 +13°C° 0.5 mm 8 mps 754 mmHg 85%
    02:00 +14°C° 0.5 mm 7 mps 753 mmHg 86%
    03:00 +13°C° 0.9 mm 8 mps 753 mmHg 84%
    04:00 +13°C° 0.9 mm 8 mps 752 mmHg 83%
    05:00 +12°C° 0.9 mm 8 mps 752 mmHg 81%
    06:00 +12°C° 0.2 mm 8 mps 752 mmHg 81%
    07:00 +12°C° 0.2 mm 9 mps 751 mmHg 81%
    08:00 +12°C° 0.2 mm 9 mps 751 mmHg 80%
    09:00 +13°C° 0.1 mm 9 mps 751 mmHg 78%
    10:00 +14°C° 0.1 mm 10 mps 751 mmHg 76%
    11:00 +14°C° 0.1 mm 10 mps 750 mmHg 74%
    12:00 +13°C° 0.3 mm 10 mps 750 mmHg 74%
    13:00 +13°C° 0.3 mm 10 mps 751 mmHg 75%
    14:00 +12°C° 0.3 mm 10 mps 751 mmHg 75%
    15:00 +9°C° 0.3 mm 10 mps 752 mmHg 74%
    16:00 +8°C° 0.3 mm 9 mps 753 mmHg 73%
    17:00 +6°C° 0.3 mm 8 mps 754 mmHg 72%
    18:00 +6°C° 0 mm 7 mps 755 mmHg 73%
    19:00 +5°C° 0 mm 7 mps 756 mmHg 73%
    20:00 +5°C° 0 mm 6 mps 757 mmHg 74%
    21:00 +4°C° 0 mm 6 mps 758 mmHg 74%
    22:00 +4°C° 0 mm 6 mps 759 mmHg 75%
    23:00 +3°C° 0 mm 5 mps 760 mmHg 75%
    Show more